[Iaude] MPEC L16: 2024 KZ1 [a=1.67,e=0.36,i=5.5,H=24.1]

mpec at cfa.harvard.edu mpec at cfa.harvard.edu
Sun Jun 2 00:37:41 EDT 2024


M.P.E.C. 2024-L16                                  Issued 2024 June 2, 04:36 UT

     The Minor Planet Electronic Circulars contain information on unusual
         minor planets, routine data on comets and natural satellites,
         and occasional editorial announcements.  They are published
    on behalf of Division F of the International Astronomical Union by the
          Minor Planet Center, Smithsonian Astrophysical Observatory,
                          Cambridge, MA 02138, U.S.A.
			  
             Prepared using the Tamkin Foundation Computer Network

                              MPC at CFA.HARVARD.EDU
            URL https://www.minorplanetcenter.net/    ISSN 1523-6714

                                    2024 KZ1                                    


Observations:
     K24K01Z* C2024 05 31.39776614 15 51.453+31 37 43.56         21.93wXEL016F52
     K24K01Z  C2024 05 31.40890214 15 53.538+31 38 08.18         21.73wXEL016F52
     K24K01Z  C2024 05 31.42003214 15 55.632+31 38 32.10         22.06wXEL016F52
     K24K01Z  C2024 05 31.43113714 15 57.704+31 38 56.30         22.01wXEL016F52
     K24K01Z 3C2024 06 01.41016214 19 32.903+32 15 45.17         21.81GVEL016T14
     K24K01Z 3C2024 06 01.41114214 19 33.095+32 15 47.25         21.71GVEL016T14
     K24K01Z 3C2024 06 01.41212314 19 33.286+32 15 49.40         21.67GVEL016T14
     K24K01Z KC2024 06 02.15561814 22 26.098+32 43 00.73         21.6 GVEL016H01
     K24K01Z KC2024 06 02.16288414 22 27.561+32 43 17.06         21.8 GVEL016H01
     K24K01Z KC2024 06 02.17075914 22 29.181+32 43 34.60         21.5 GVEL016H01
     K24K01Z KC2024 06 02.17783514 22 30.626+32 43 50.40         21.5 GVEL016H01

Observer details:
F52 Pan-STARRS 2, Haleakala.  Observers J. Herman, T. Lowe, P. Minguez, A.
    Schultz, I. Smith.  Measurers K. Chambers, T. de Boer, J. Fairlamb, H.
    Gao, M. Huber, C.-C. Lin, E. Magnier, Y. Ramanjooloo, R. Wainscoat, R.
    Weryk.  1.8-m Ritchey-Chretien + CCD.
H01 Magdalena Ridge Observatory, Socorro.  Observers W. H. Ryan, E. V. Ryan.
    Measurer W. H. Ryan.  2.4-m f/8.9 Ritchey-Chretien + CCD.
T14 Canada-France-Hawaii Telescope, Maunakea.  Observers R. Wainscoat, L.
    Wells, T. Burdullis.  Measurers R. Weryk, R. Wainscoat.  3.6-m f/4.1
    reflector + CCD.

Orbital elements:
2024 KZ1                                                 Earth MOID = 0.1065 AU
Epoch 2024 Mar. 31.0 TT = JDT 2460400.5                 MPC                     
M 323.34642              (2000.0)            P               Q                  
n   0.45699452     Peri.   77.35737     -0.07666370     +0.99696047             
a   1.6692782      Node   188.28336     -0.94808952     -0.07719892             
e   0.3629400      Incl.    5.52650     -0.30862426     -0.01049557             
P   2.16           H   24.13          G   0.15           U   9                  
Residuals in seconds of arc
240531 F52  0.1-  0.0     240601 T14  0.0   0.0     240602 H01  0.2-  0.0
240531 F52  0.0   0.2+    240601 T14  0.0   0.0     240602 H01  0.0   0.0
240531 F52  0.2+  0.2-    240601 T14  0.0   0.0     240602 H01  0.1+  0.0
240531 F52  0.1-  0.0     240602 H01  0.1+  0.0

Ephemeris:
2024 KZ1                 a,e,i = 1.67, 0.36, 6                   q = 1.0634
Date    TT    R. A. (2000) Decl.     Delta      r    Elong.  Phase     V
2024 05 03    13 24 27.9 +11 25 48   0.1769  1.1603   146.9    28.3    21.9
...
2024 05 18    13 40 38.7 +22 24 24   0.1481  1.1106   129.0    45.1    21.9
...
2024 05 26    13 58 46.7 +28 03 46   0.1373  1.0906   121.3    52.6    21.9
...
2024 06 01    14 18 04.0 +32 00 14   0.1306  1.0789   116.6    57.1    21.9
2024 06 02    14 21 48.8 +32 37 20   0.1296  1.0773   116.0    57.8    21.9
2024 06 03    14 25 43.4 +33 13 36   0.1286  1.0757   115.4    58.4    21.9
...
2024 06 09    14 52 44.5 +36 30 02   0.1235  1.0683   112.4    61.5    21.9
...
2024 06 17    15 38 28.2 +39 34 13   0.1185  1.0636   110.7    63.3    21.9
...
2024 07 02    17 23 08.3 +39 08 38   0.1166  1.0711   115.0    59.4    21.7

A. U. Tomatic                (C) Copyright 2024 MPC           M.P.E.C. 2024-L16





More information about the Iaude mailing list